WXM80 ListenWXM80 Stop

You find our weather info also at:

UK Metoffice

WeatherCloud

Weather Underground

Northeastern Weather Network

AWEKAS

Citizen Weather Observer Program (CWOP)

HAMweather, WeatherForYou, PWS Weather


Weather Underground History page Text

Daily Summary for December 28, 2016 Units:  English    Metric   Both
« Previous Day
Next Day »
Daily Weekly Monthly Yearly Custom
  High: Low: Average:
Temperature: 42.8 °F 28.9 °F 38.4 °F
Dew Point: 32.9 °F 22.8 °F 27.4 °F
Humidity: 80 % 52 % 65 %
Wind Speed: 7.8 mph 0.0 mph 3.3 mph
Wind Gust: 29.0 mph - -
Wind:- - WNW
Pressure: 30.15 in 29.89 in -
Precipitation: 0.00 in    
Historical Graphs
 
 
Tabular Data for December 28, 2016
Time Temperature Dew Point Pressure Wind Wind Speed Wind Gust Humidity Rainfall Rate (Hourly)
00:02 38.5 °F 32.9 °F 29.89 in WSW 2.7 mph 29.0 mph 80 % 0.00 in
00:07 38.8 °F 32.8 °F 29.89 in WSW 2.4 mph 29.0 mph 79 % 0.00 in
00:12 39.0 °F 32.7 °F 29.89 in WSW 4.1 mph 29.0 mph 78 % 0.00 in
00:17 39.2 °F 32.6 °F 29.89 in SW 3.1 mph 29.0 mph 77 % 0.00 in
00:23 39.3 °F 32.4 °F 29.90 in WNW 2.8 mph 29.0 mph 76 % 0.00 in
00:28 39.5 °F 32.6 °F 29.90 in NW 3.4 mph 29.0 mph 76 % 0.00 in
00:33 39.5 °F 32.2 °F 29.90 in West 2.7 mph 29.0 mph 75 % 0.00 in
00:38 39.7 °F 32.1 °F 29.90 in West 4.1 mph 29.0 mph 74 % 0.00 in
00:43 39.8 °F 31.8 °F 29.90 in WNW 3.5 mph 29.0 mph 73 % 0.00 in
00:48 39.8 °F 31.5 °F 29.90 in West 3.1 mph 29.0 mph 72 % 0.00 in
00:53 39.8 °F 31.5 °F 29.90 in West 3.4 mph 29.0 mph 72 % 0.00 in
00:58 39.7 °F 31.4 °F 29.89 in NW 7.6 mph 29.0 mph 72 % 0.00 in
01:03 39.7 °F 31.4 °F 29.90 in West 5.9 mph 29.0 mph 72 % 0.00 in
01:08 39.6 °F 31.3 °F 29.90 in West 3.5 mph 29.0 mph 72 % 0.00 in
01:13 39.6 °F 31.0 °F 29.90 in West 5.4 mph 29.0 mph 71 % 0.00 in
01:18 39.5 °F 30.9 °F 29.90 in WNW 5.6 mph 29.0 mph 71 % 0.00 in
01:23 39.4 °F 31.1 °F 29.90 in WNW 3.4 mph 29.0 mph 72 % 0.00 in
01:28 39.3 °F 31.0 °F 29.90 in West 3.7 mph 29.0 mph 72 % 0.00 in
01:33 39.2 °F 30.9 °F 29.91 in WNW 3.5 mph 29.0 mph 72 % 0.00 in
01:38 39.2 °F 30.9 °F 29.91 in West 4.6 mph 29.0 mph 72 % 0.00 in
01:43 39.1 °F 30.8 °F 29.91 in NW 2.9 mph 29.0 mph 72 % 0.00 in
01:48 39.1 °F 30.8 °F 29.91 in WNW 3.0 mph 29.0 mph 72 % 0.00 in
01:54 39.0 °F 30.7 °F 29.91 in WNW 2.7 mph 29.0 mph 72 % 0.00 in
01:59 39.0 °F 31.1 °F 29.91 in WNW 4.8 mph 29.0 mph 73 % 0.00 in
02:04 38.9 °F 31.0 °F 29.91 in WNW 5.5 mph 29.0 mph 73 % 0.00 in
02:09 38.8 °F 30.9 °F 29.91 in NNW 5.1 mph 29.0 mph 73 % 0.00 in
02:14 38.8 °F 30.9 °F 29.91 in WNW 3.3 mph 29.0 mph 73 % 0.00 in
02:24 38.7 °F 30.8 °F 29.92 in WNW 2.6 mph 29.0 mph 73 % 0.00 in
02:29 38.7 °F 30.8 °F 29.92 in WNW 4.4 mph 29.0 mph 73 % 0.00 in
02:34 38.7 °F 30.8 °F 29.92 in WNW 4.6 mph 29.0 mph 73 % 0.00 in
02:39 38.6 °F 30.7 °F 29.92 in NW 4.1 mph 29.0 mph 73 % 0.00 in
02:44 38.6 °F 30.7 °F 29.92 in WNW 6.0 mph 14.0 mph 73 % 0.00 in
02:49 38.7 °F 30.8 °F 29.93 in WNW 6.0 mph 12.0 mph 73 % 0.00 in
02:54 38.7 °F 30.8 °F 29.93 in WNW 6.0 mph 12.0 mph 73 % 0.00 in
02:59 38.8 °F 30.9 °F 29.93 in West 6.3 mph 29.0 mph 73 % 0.00 in
03:04 38.9 °F 30.6 °F 29.93 in NW 5.2 mph 29.0 mph 72 % 0.00 in
03:09 38.9 °F 30.6 °F 29.93 in WNW 7.8 mph 29.0 mph 72 % 0.00 in
03:15 38.9 °F 30.3 °F 29.93 in NNW 4.2 mph 29.0 mph 71 % 0.00 in
03:20 39.0 °F 30.0 °F 29.93 in West 4.0 mph 29.0 mph 70 % 0.00 in
03:25 39.1 °F 30.1 °F 29.93 in WNW 6.0 mph 29.0 mph 70 % 0.00 in
03:30 39.1 °F 30.1 °F 29.93 in WNW 4.4 mph 29.0 mph 70 % 0.00 in
03:35 39.1 °F 30.5 °F 29.93 in West 3.8 mph 29.0 mph 71 % 0.00 in
03:40 39.1 °F 30.8 °F 29.93 in SW 2.1 mph 29.0 mph 72 % 0.00 in
03:45 39.2 °F 30.9 °F 29.94 in West 1.8 mph 29.0 mph 72 % 0.00 in
03:50 39.3 °F 30.7 °F 29.94 in WSW 3.8 mph 29.0 mph 71 % 0.00 in
03:55 39.3 °F 30.7 °F 29.94 in WNW 4.2 mph 29.0 mph 71 % 0.00 in
04:00 39.3 °F 30.3 °F 29.94 in WSW 5.1 mph 29.0 mph 70 % 0.00 in
04:05 39.3 °F 30.0 °F 29.94 in West 3.3 mph 29.0 mph 69 % 0.00 in
04:11 39.3 °F 30.7 °F 29.95 in West 1.5 mph 29.0 mph 71 % 0.00 in
04:16 39.3 °F 30.0 °F 29.95 in SW 5.4 mph 29.0 mph 69 % 0.00 in
04:21 39.4 °F 30.4 °F 29.95 in WNW 5.3 mph 29.0 mph 70 % 0.00 in
04:26 39.5 °F 30.5 °F 29.95 in WNW 4.1 mph 29.0 mph 70 % 0.00 in
04:31 39.5 °F 30.5 °F 29.95 in WNW 2.7 mph 29.0 mph 70 % 0.00 in
04:36 39.6 °F 30.6 °F 29.95 in West 3.3 mph 29.0 mph 70 % 0.00 in
04:41 39.7 °F 30.4 °F 29.96 in NW 4.4 mph 29.0 mph 69 % 0.00 in
04:46 39.7 °F 30.4 °F 29.95 in West 5.1 mph 29.0 mph 69 % 0.00 in
04:51 39.8 °F 30.5 °F 29.95 in West 3.8 mph 29.0 mph 69 % 0.00 in
04:56 39.8 °F 30.5 °F 29.95 in NW 6.1 mph 29.0 mph 69 % 0.00 in
05:01 39.9 °F 30.5 °F 29.96 in NW 5.0 mph 29.0 mph 69 % 0.00 in
05:06 39.9 °F 30.5 °F 29.97 in NW 3.5 mph 29.0 mph 69 % 0.00 in
05:11 40.0 °F 30.3 °F 29.97 in WNW 4.2 mph 29.0 mph 68 % 0.00 in
05:16 40.0 °F 30.6 °F 29.97 in WNW 3.7 mph 29.0 mph 69 % 0.00 in
05:21 40.0 °F 30.3 °F 29.97 in WNW 6.2 mph 29.0 mph 68 % 0.00 in
05:26 40.0 °F 30.3 °F 29.98 in WNW 4.2 mph 29.0 mph 68 % 0.00 in
05:32 40.0 °F 30.3 °F 29.98 in WNW 2.9 mph 29.0 mph 68 % 0.00 in
05:37 40.0 °F 30.3 °F 29.98 in WNW 6.1 mph 29.0 mph 68 % 0.00 in
05:42 39.9 °F 29.5 °F 29.98 in West 3.9 mph 29.0 mph 66 % 0.00 in
05:47 39.8 °F 29.0 °F 29.97 in WNW 4.2 mph 29.0 mph 65 % 0.00 in
05:52 39.7 °F 28.9 °F 29.98 in WNW 4.7 mph 29.0 mph 65 % 0.00 in
05:57 39.6 °F 28.8 °F 29.98 in WNW 5.1 mph 29.0 mph 65 % 0.00 in
06:02 39.5 °F 28.7 °F 29.98 in NW 4.5 mph 29.0 mph 65 % 0.00 in
06:07 39.4 °F 29.0 °F 29.98 in NW 5.7 mph 29.0 mph 66 % 0.00 in
06:12 39.4 °F 29.0 °F 29.98 in NW 4.6 mph 29.0 mph 66 % 0.00 in
06:17 39.3 °F 28.5 °F 29.98 in WNW 3.3 mph 29.0 mph 65 % 0.00 in
06:22 39.4 °F 29.3 °F 29.99 in West 3.1 mph 29.0 mph 67 % 0.00 in
06:27 39.4 °F 28.6 °F 29.99 in WNW 4.5 mph 29.0 mph 65 % 0.00 in
06:32 39.5 °F 29.1 °F 29.99 in WNW 3.9 mph 29.0 mph 66 % 0.00 in
06:37 39.5 °F 28.7 °F 29.99 in NW 3.8 mph 29.0 mph 65 % 0.00 in
06:42 39.6 °F 28.8 °F 29.99 in WNW 0.3 mph 29.0 mph 65 % 0.00 in
06:47 39.6 °F 28.8 °F 30.00 in WSW 4.9 mph 29.0 mph 65 % 0.00 in
06:52 39.6 °F 28.8 °F 30.00 in SW 4.0 mph 29.0 mph 65 % 0.00 in
06:57 39.6 °F 28.8 °F 30.00 in SW 4.5 mph 29.0 mph 65 % 0.00 in
07:02 39.6 °F 29.2 °F 30.00 in West 5.2 mph 29.0 mph 66 % 0.00 in
07:07 39.6 °F 29.2 °F 30.01 in West 2.9 mph 29.0 mph 66 % 0.00 in
07:13 39.6 °F 29.2 °F 30.01 in WSW 4.1 mph 29.0 mph 66 % 0.00 in
07:18 39.6 °F 29.2 °F 30.02 in West 3.1 mph 29.0 mph 66 % 0.00 in
07:23 39.6 °F 29.2 °F 30.02 in WNW 4.6 mph 29.0 mph 66 % 0.00 in
07:28 39.6 °F 29.5 °F 30.02 in West 4.6 mph 29.0 mph 67 % 0.00 in
07:33 39.6 °F 29.5 °F 30.03 in WNW 2.5 mph 29.0 mph 67 % 0.00 in
07:38 39.6 °F 29.5 °F 30.03 in WNW 3.8 mph 29.0 mph 67 % 0.00 in
07:43 39.6 °F 29.5 °F 30.02 in West 4.6 mph 29.0 mph 67 % 0.00 in
07:48 39.7 °F 29.3 °F 30.02 in West 6.1 mph 29.0 mph 66 % 0.00 in
07:53 39.7 °F 29.6 °F 30.03 in WNW 3.6 mph 29.0 mph 67 % 0.00 in
07:58 39.7 °F 29.6 °F 30.03 in NW 3.7 mph 29.0 mph 67 % 0.00 in
08:03 39.8 °F 29.7 °F 30.04 in NNW 3.3 mph 29.0 mph 67 % 0.00 in
08:08 39.8 °F 29.7 °F 30.04 in WNW 2.7 mph 29.0 mph 67 % 0.00 in
08:13 39.9 °F 29.8 °F 30.04 in WNW 0.8 mph 29.0 mph 67 % 0.00 in
08:18 40.0 °F 29.9 °F 30.04 in NW 2.7 mph 29.0 mph 67 % 0.00 in
08:23 40.0 °F 29.9 °F 30.04 in WNW 3.1 mph 29.0 mph 67 % 0.00 in
08:28 40.1 °F 29.6 °F 30.05 in West 5.5 mph 29.0 mph 66 % 0.00 in
08:33 40.1 °F 29.6 °F 30.05 in WNW 5.1 mph 29.0 mph 66 % 0.00 in
08:38 40.2 °F 29.7 °F 30.05 in West 3.3 mph 29.0 mph 66 % 0.00 in
08:43 40.2 °F 29.7 °F 30.05 in West 6.2 mph 29.0 mph 66 % 0.00 in
08:49 40.2 °F 29.7 °F 30.05 in WNW 2.8 mph 29.0 mph 66 % 0.00 in
08:54 40.3 °F 29.8 °F 30.05 in WNW 7.5 mph 29.0 mph 66 % 0.00 in
08:59 40.3 °F 29.8 °F 30.05 in NW 5.1 mph 29.0 mph 66 % 0.00 in
09:04 40.3 °F 30.6 °F 30.06 in West 3.8 mph 29.0 mph 68 % 0.00 in
09:09 40.4 °F 29.9 °F 30.06 in NW 3.3 mph 29.0 mph 66 % 0.00 in
09:14 40.5 °F 30.4 °F 30.07 in NW 6.5 mph 29.0 mph 67 % 0.00 in
09:19 40.5 °F 30.0 °F 30.07 in NW 3.7 mph 29.0 mph 66 % 0.00 in
09:25 40.6 °F 30.5 °F 30.07 in NW 5.0 mph 29.0 mph 67 % 0.00 in
09:30 40.7 °F 30.6 °F 30.07 in NNW 4.3 mph 29.0 mph 67 % 0.00 in
09:35 40.7 °F 30.6 °F 30.08 in NW 4.4 mph 29.0 mph 67 % 0.00 in
09:40 40.9 °F 30.8 °F 30.08 in WNW 3.8 mph 29.0 mph 67 % 0.00 in
09:45 41.0 °F 30.5 °F 30.08 in WNW 3.2 mph 29.0 mph 66 % 0.00 in
09:50 41.0 °F 30.5 °F 30.08 in WNW 4.5 mph 29.0 mph 66 % 0.00 in
09:55 41.1 °F 31.0 °F 30.09 in WNW 2.6 mph 29.0 mph 67 % 0.00 in
10:00 41.2 °F 30.7 °F 30.08 in NW 3.2 mph 29.0 mph 66 % 0.00 in
10:05 41.3 °F 30.8 °F 30.08 in WNW 4.9 mph 29.0 mph 66 % 0.00 in
10:10 41.4 °F 30.9 °F 30.08 in West 4.1 mph 29.0 mph 66 % 0.00 in
10:15 41.5 °F 30.6 °F 30.08 in West 2.0 mph 29.0 mph 65 % 0.00 in
10:20 41.6 °F 30.7 °F 30.08 in West 1.4 mph 29.0 mph 65 % 0.00 in
10:25 41.8 °F 30.9 °F 30.09 in WSW 5.5 mph 29.0 mph 65 % 0.00 in
10:30 42.0 °F 30.3 °F 30.08 in WNW 2.6 mph 29.0 mph 63 % 0.00 in
10:36 42.2 °F 30.1 °F 30.08 in NW 4.2 mph 29.0 mph 62 % 0.00 in
10:41 42.2 °F 29.3 °F 30.08 in WNW 5.7 mph 29.0 mph 60 % 0.00 in
10:46 42.1 °F 29.2 °F 30.08 in NW 4.4 mph 29.0 mph 60 % 0.00 in
10:51 41.9 °F 29.4 °F 30.08 in NNW 5.3 mph 29.0 mph 61 % 0.00 in
10:56 41.8 °F 29.3 °F 30.08 in NW 4.7 mph 29.0 mph 61 % 0.00 in
11:01 41.7 °F 29.2 °F 30.08 in WNW 5.6 mph 29.0 mph 61 % 0.00 in
11:06 41.6 °F 29.1 °F 30.08 in WNW 4.2 mph 29.0 mph 61 % 0.00 in
11:11 41.5 °F 29.0 °F 30.08 in NW 4.5 mph 29.0 mph 61 % 0.00 in
11:16 41.4 °F 29.3 °F 30.08 in WNW 3.5 mph 29.0 mph 62 % 0.00 in
11:21 41.3 °F 29.3 °F 30.08 in West 5.7 mph 29.0 mph 62 % 0.00 in
11:26 41.1 °F 28.7 °F 30.08 in West 4.5 mph 29.0 mph 61 % 0.00 in
11:31 40.9 °F 28.9 °F 30.07 in NNW 3.0 mph 29.0 mph 62 % 0.00 in
11:36 40.8 °F 28.8 °F 30.07 in NW 2.6 mph 29.0 mph 62 % 0.00 in
11:41 40.7 °F 28.7 °F 30.07 in NW 6.2 mph 29.0 mph 62 % 0.00 in
11:47 40.6 °F 28.2 °F 30.07 in NW 4.2 mph 29.0 mph 61 % 0.00 in
11:52 40.5 °F 28.1 °F 30.07 in NNW 3.8 mph 29.0 mph 61 % 0.00 in
11:57 40.5 °F 28.9 °F 30.07 in NW 5.0 mph 29.0 mph 63 % 0.00 in
12:02 40.4 °F 28.8 °F 30.07 in NW 2.9 mph 29.0 mph 63 % 0.00 in
12:07 40.4 °F 29.2 °F 30.07 in WNW 7.0 mph 29.0 mph 64 % 0.00 in
12:12 40.4 °F 28.8 °F 30.07 in NW 3.5 mph 29.0 mph 63 % 0.00 in
12:17 40.3 °F 28.7 °F 30.07 in NW 5.4 mph 29.0 mph 63 % 0.00 in
12:22 40.3 °F 27.9 °F 30.06 in West 3.9 mph 29.0 mph 61 % 0.00 in
12:27 40.4 °F 27.2 °F 30.07 in WNW 5.0 mph 29.0 mph 59 % 0.00 in
12:32 40.6 °F 27.0 °F 30.07 in NW 3.9 mph 29.0 mph 58 % 0.00 in
12:37 41.0 °F 26.5 °F 30.07 in West 6.2 mph 29.0 mph 56 % 0.00 in
12:42 41.3 °F 26.3 °F 30.06 in SSW 7.0 mph 29.0 mph 55 % 0.00 in
12:47 41.6 °F 26.2 °F 30.06 in WSW 6.5 mph 29.0 mph 54 % 0.00 in
12:52 42.0 °F 26.1 °F 30.06 in WSW 6.3 mph 29.0 mph 53 % 0.00 in
12:57 42.3 °F 26.4 °F 30.06 in SE 5.1 mph 29.0 mph 53 % 0.00 in
13:03 42.7 °F 26.3 °F 30.06 in West 6.5 mph 29.0 mph 52 % 0.00 in
13:08 42.8 °F 26.4 °F 30.06 in WSW 5.9 mph 29.0 mph 52 % 0.00 in
13:13 42.6 °F 26.2 °F 30.07 in WNW 2.8 mph 29.0 mph 52 % 0.00 in
13:18 42.6 °F 26.6 °F 30.07 in WNW 1.3 mph 29.0 mph 53 % 0.00 in
13:23 42.5 °F 26.6 °F 30.07 in WNW 3.7 mph 29.0 mph 53 % 0.00 in
13:28 42.4 °F 26.9 °F 30.07 in NNW 2.2 mph 29.0 mph 54 % 0.00 in
13:33 42.1 °F 26.2 °F 30.07 in NNE 3.0 mph 29.0 mph 53 % 0.00 in
13:38 41.9 °F 25.5 °F 30.07 in NW 5.2 mph 29.0 mph 52 % 0.00 in
13:43 41.7 °F 25.4 °F 30.07 in NW 5.0 mph 29.0 mph 52 % 0.00 in
13:48 41.6 °F 25.3 °F 30.07 in NNW 3.4 mph 29.0 mph 52 % 0.00 in
13:58 41.5 °F 25.2 °F 30.07 in NW 7.5 mph 29.0 mph 52 % 0.00 in
14:03 41.4 °F 25.1 °F 30.06 in NNW 4.1 mph 29.0 mph 52 % 0.00 in
14:08 41.3 °F 25.0 °F 30.06 in NW 5.6 mph 29.0 mph 52 % 0.00 in
14:13 41.2 °F 25.3 °F 30.07 in NW 1.8 mph 29.0 mph 53 % 0.00 in
14:18 41.1 °F 25.7 °F 30.07 in NW 3.3 mph 29.0 mph 54 % 0.00 in
14:23 40.9 °F 25.1 °F 30.07 in WNW 3.1 mph 29.0 mph 53 % 0.00 in
14:28 40.8 °F 25.0 °F 30.07 in WNW 3.9 mph 29.0 mph 53 % 0.00 in
14:34 40.7 °F 24.9 °F 30.08 in North 4.3 mph 29.0 mph 53 % 0.00 in
14:39 40.6 °F 25.2 °F 30.08 in NNW 3.2 mph 29.0 mph 54 % 0.00 in
14:44 40.5 °F 25.6 °F 30.08 in NW 5.3 mph 29.0 mph 55 % 0.00 in
14:49 40.4 °F 25.5 °F 30.08 in WNW 3.2 mph 29.0 mph 55 % 0.00 in
14:54 40.3 °F 25.4 °F 30.08 in NW 5.6 mph 29.0 mph 55 % 0.00 in
14:59 40.2 °F 24.9 °F 30.08 in NNW 2.7 mph 29.0 mph 54 % 0.00 in
15:04 40.1 °F 24.8 °F 30.08 in WNW 3.6 mph 29.0 mph 54 % 0.00 in
15:09 40.1 °F 24.8 °F 30.08 in WNW 5.7 mph 29.0 mph 54 % 0.00 in
15:14 40.0 °F 24.7 °F 30.08 in WNW 5.2 mph 29.0 mph 54 % 0.00 in
15:19 39.9 °F 24.6 °F 30.08 in NW 3.8 mph 29.0 mph 54 % 0.00 in
15:24 39.8 °F 24.5 °F 30.09 in WNW 5.8 mph 29.0 mph 54 % 0.00 in
15:29 39.7 °F 24.8 °F 30.09 in NW 2.8 mph 29.0 mph 55 % 0.00 in
15:34 39.6 °F 24.7 °F 30.09 in WNW 3.0 mph 9.0 mph 55 % 0.00 in
15:44 39.4 °F 24.6 °F 30.09 in NW 3.0 mph 8.0 mph 55 % 0.00 in
15:49 39.3 °F 24.0 °F 30.09 in NW 5.0 mph 10.0 mph 54 % 0.00 in
15:59 39.1 °F 24.7 °F 30.09 in WNW 1.4 mph 29.0 mph 56 % 0.00 in
16:04 39.0 °F 24.6 °F 30.09 in WNW 2.9 mph 29.0 mph 56 % 0.00 in
16:09 38.8 °F 24.4 °F 30.10 in NW 2.9 mph 29.0 mph 56 % 0.00 in
16:14 38.7 °F 24.8 °F 30.10 in WNW 4.4 mph 29.0 mph 57 % 0.00 in
16:19 38.6 °F 24.7 °F 30.10 in WNW 2.1 mph 29.0 mph 57 % 0.00 in
16:25 38.5 °F 24.1 °F 30.10 in NNW 1.4 mph 29.0 mph 56 % 0.00 in
16:30 38.4 °F 23.6 °F 30.10 in North 2.4 mph 29.0 mph 55 % 0.00 in
16:35 38.3 °F 24.0 °F 30.11 in NW 2.6 mph 29.0 mph 56 % 0.00 in
16:40 38.3 °F 23.5 °F 30.11 in NW 1.6 mph 29.0 mph 55 % 0.00 in
16:45 38.2 °F 23.9 °F 30.11 in NW 3.4 mph 29.0 mph 56 % 0.00 in
16:50 38.2 °F 24.3 °F 30.11 in WNW 3.3 mph 29.0 mph 57 % 0.00 in
16:55 38.2 °F 24.3 °F 30.11 in NW 2.4 mph 29.0 mph 57 % 0.00 in
17:00 38.2 °F 24.3 °F 30.11 in WNW 3.4 mph 29.0 mph 57 % 0.00 in
17:05 38.2 °F 23.9 °F 30.11 in West 3.3 mph 29.0 mph 56 % 0.00 in
17:10 38.2 °F 23.9 °F 30.11 in WNW 2.2 mph 29.0 mph 56 % 0.00 in
17:20 38.2 °F 24.7 °F 30.12 in NNW 4.2 mph 29.0 mph 58 % 0.00 in
17:25 38.3 °F 24.0 °F 30.12 in North 2.0 mph 29.0 mph 56 % 0.00 in
17:30 38.3 °F 24.0 °F 30.11 in WNW 3.3 mph 29.0 mph 56 % 0.00 in
17:35 38.3 °F 24.0 °F 30.11 in NW 2.7 mph 29.0 mph 56 % 0.00 in
17:40 38.2 °F 23.9 °F 30.12 in NNW 2.6 mph 29.0 mph 56 % 0.00 in
17:46 38.1 °F 24.2 °F 30.12 in North 2.2 mph 29.0 mph 57 % 0.00 in
17:51 38.0 °F 23.7 °F 30.12 in NNW 3.0 mph 29.0 mph 56 % 0.00 in
17:56 37.9 °F 24.0 °F 30.12 in North 3.0 mph 29.0 mph 57 % 0.00 in
18:01 37.9 °F 24.0 °F 30.12 in NW 1.3 mph 29.0 mph 57 % 0.00 in
18:06 37.9 °F 24.0 °F 30.12 in NW 2.2 mph 29.0 mph 57 % 0.00 in
18:11 37.8 °F 24.3 °F 30.12 in NW 2.1 mph 29.0 mph 58 % 0.00 in
18:16 37.8 °F 23.9 °F 30.12 in WNW 2.3 mph 29.0 mph 57 % 0.00 in
18:21 37.7 °F 23.4 °F 30.12 in NW 2.0 mph 29.0 mph 56 % 0.00 in
18:27 37.7 °F 23.8 °F 30.12 in NNW 3.9 mph 29.0 mph 57 % 0.00 in
18:32 37.6 °F 23.7 °F 30.12 in NW 1.9 mph 29.0 mph 57 % 0.00 in
18:42 37.4 °F 24.0 °F 30.13 in NNW 1.0 mph 29.0 mph 58 % 0.00 in
18:47 37.3 °F 24.3 °F 30.13 in NNW 0.8 mph 29.0 mph 59 % 0.00 in
18:52 37.3 °F 24.7 °F 30.13 in WNW 2.9 mph 29.0 mph 60 % 0.00 in
18:57 37.1 °F 24.1 °F 30.13 in NNW 2.9 mph 29.0 mph 59 % 0.00 in
19:02 37.1 °F 23.7 °F 30.13 in North 4.4 mph 29.0 mph 58 % 0.00 in
19:12 37.0 °F 24.0 °F 30.13 in NNW 3.6 mph 29.0 mph 59 % 0.00 in
19:17 36.9 °F 23.9 °F 30.13 in NNW 1.2 mph 29.0 mph 59 % 0.00 in
19:22 36.8 °F 23.4 °F 30.13 in North 1.2 mph 29.0 mph 58 % 0.00 in
19:27 36.8 °F 23.4 °F 30.13 in NNW 1.0 mph 29.0 mph 58 % 0.00 in
19:32 36.7 °F 23.3 °F 30.13 in NW 1.4 mph 29.0 mph 58 % 0.00 in
19:37 36.6 °F 23.6 °F 30.13 in NW 0.6 mph 29.0 mph 59 % 0.00 in
19:43 36.5 °F 23.1 °F 30.13 in NW 1.8 mph 29.0 mph 58 % 0.00 in
19:48 36.5 °F 23.1 °F 30.14 in NNW 1.6 mph 29.0 mph 58 % 0.00 in
19:53 36.4 °F 23.0 °F 30.13 in NE 3.5 mph 29.0 mph 58 % 0.00 in
19:58 36.4 °F 23.0 °F 30.13 in North 0.3 mph 29.0 mph 58 % 0.00 in
20:03 36.3 °F 22.9 °F 30.14 in Calm   29.0 mph 58 % 0.00 in
20:08 36.2 °F 22.8 °F 30.14 in Calm   29.0 mph 58 % 0.00 in
20:13 36.1 °F 23.5 °F 30.14 in NNW 0.3 mph 29.0 mph 60 % 0.00 in
20:24 35.6 °F 23.9 °F 30.14 in West 1.3 mph 29.0 mph 62 % 0.00 in
20:29 35.3 °F 24.3 °F 30.14 in West 2.6 mph 29.0 mph 64 % 0.00 in
20:34 35.1 °F 24.1 °F 30.14 in West 0.7 mph 29.0 mph 64 % 0.00 in
20:39 34.9 °F 23.9 °F 30.14 in West 1.2 mph 29.0 mph 64 % 0.00 in
20:44 34.6 °F 24.0 °F 30.14 in West 0.7 mph 29.0 mph 65 % 0.00 in
20:49 34.4 °F 24.2 °F 30.14 in West 0.7 mph 29.0 mph 66 % 0.00 in
20:54 34.1 °F 23.9 °F 30.15 in West 0.8 mph 29.0 mph 66 % 0.00 in
20:59 33.8 °F 24.0 °F 30.15 in West 0.6 mph 29.0 mph 67 % 0.00 in
21:04 33.6 °F 24.2 °F 30.14 in West 0.1 mph 29.0 mph 68 % 0.00 in
21:09 33.3 °F 23.9 °F 30.14 in West 1.0 mph 2.0 mph 68 % 0.00 in
21:14 33.1 °F 24.0 °F 30.14 in Calm   1.0 mph 69 % 0.00 in
21:19 32.9 °F 23.8 °F 30.14 in West 0.4 mph 29.0 mph 69 % 0.00 in
21:24 32.6 °F 23.9 °F 30.14 in Calm   1.0 mph 70 % 0.00 in
21:29 32.4 °F 23.7 °F 30.14 in West 1.0 mph 2.0 mph 70 % 0.00 in
21:34 32.1 °F 23.8 °F 30.14 in Calm   1.0 mph 71 % 0.00 in
21:39 31.9 °F 23.6 °F 30.14 in Calm   1.0 mph 71 % 0.00 in
21:44 31.7 °F 23.7 °F 30.14 in Calm   2.0 mph 72 % 0.00 in
21:49 31.5 °F 23.5 °F 30.14 in West 1.0 mph 2.0 mph 72 % 0.00 in
21:54 31.3 °F 23.7 °F 30.13 in Calm   1.0 mph 73 % 0.00 in
21:59 31.2 °F 23.5 °F 30.13 in Calm   29.0 mph 73 % 0.00 in
22:04 31.0 °F 23.7 °F 30.13 in West 1.3 mph 29.0 mph 74 % 0.00 in
22:09 30.8 °F 23.5 °F 30.12 in West 0.5 mph 29.0 mph 74 % 0.00 in
22:15 30.7 °F 23.4 °F 30.13 in West 0.1 mph 29.0 mph 74 % 0.00 in
22:20 30.6 °F 23.3 °F 30.13 in West 0.2 mph 29.0 mph 74 % 0.00 in
22:25 30.4 °F 23.4 °F 30.13 in Calm   29.0 mph 75 % 0.00 in
22:30 30.3 °F 23.3 °F 30.13 in West 1.5 mph 29.0 mph 75 % 0.00 in
22:35 30.2 °F 23.2 °F 30.13 in West 1.0 mph 29.0 mph 75 % 0.00 in
22:40 30.1 °F 23.4 °F 30.13 in Calm   29.0 mph 76 % 0.00 in
22:45 30.0 °F 23.4 °F 30.12 in West 0.4 mph 29.0 mph 76 % 0.00 in
22:50 30.0 °F 23.4 °F 30.13 in West 0.1 mph 29.0 mph 76 % 0.00 in
22:55 29.9 °F 23.6 °F 30.13 in West 0.2 mph 29.0 mph 77 % 0.00 in
23:00 29.8 °F 23.5 °F 30.13 in West 0.6 mph 29.0 mph 77 % 0.00 in
23:05 29.7 °F 23.4 °F 30.11 in Calm   29.0 mph 77 % 0.00 in
23:10 29.6 °F 23.3 °F 30.11 in Calm   29.0 mph 77 % 0.00 in
23:15 29.6 °F 23.3 °F 30.12 in West 1.1 mph 29.0 mph 77 % 0.00 in
23:20 29.5 °F 23.2 °F 30.11 in West 1.1 mph 29.0 mph 77 % 0.00 in
23:26 29.4 °F 23.4 °F 30.11 in West 0.7 mph 29.0 mph 78 % 0.00 in
23:31 29.3 °F 23.3 °F 30.11 in Calm   29.0 mph 78 % 0.00 in
23:36 29.2 °F 23.2 °F 30.11 in Calm   29.0 mph 78 % 0.00 in
23:41 29.2 °F 23.2 °F 30.11 in West 1.1 mph 29.0 mph 78 % 0.00 in
23:46 29.1 °F 23.1 °F 30.11 in West 1.0 mph 29.0 mph 78 % 0.00 in
23:51 29.0 °F 23.3 °F 30.11 in West 1.4 mph 29.0 mph 79 % 0.00 in
23:56 28.9 °F 23.2 °F 30.11 in Calm   29.0 mph 79 % 0.00 in
Crab Meadow Weather
Compliments of Weather Underground - 2.75 mb

Script developed by  Jim McMurry - jmcmurry@mwt.net Adapted for the template by  Wim van der Kuil - Leuven-Template.eu

Astronomy: February 1865 is the only month recorded in history not to have a full moon.